Погода в Ярославском

Россия / Республика Саха (Якутия)     60°09′13″N   113°56′01″E
темп.,
°C
ветер,
м/с
пор.,
м/с
влажн.,
%
обл.,
%
осадки,
мм/ч
давл.,
гПа
погр.,
м
27 февраля, сб
сб2700:00−22зюз2697100 0.1 1025163
03:00−23зюз2296100 0.1 102543
06:00−23з2295100 0.0 102663
09:00−24зюз2394100 0.0 102796
12:00−21з4970100 0.0 10281084
15:00−20з5973100 0.0 10271347
18:00−22зюз3884100 0.0 1028407
21:00−27з229283 0.0 103019
28 февраля, вс
вс2800:00−28зюз229394 0.0 103220
03:00−30зюз229497 0.0 103321
06:00−30зюз229895 0.0 103433
09:00−30юз269896 0.0 1034149
12:00−25зюз4888100 0.0 1034798
15:00−23зюз4782100 0.1 10331181
18:00−24зюз3688100 0.1 1033975
21:00−28юз2297100 0.1 103419
1 марта, пн
пн100:00−28юз2299100 0.0 103519
03:00−30юз2210097 0.0 103519
06:00−28юз2299100 0.1 103534
09:00−28юз2299100 0.1 103465
12:00−25зюз2490100 0.1 1032585
15:00−23юз2481100 0.1 10301148
18:00−24зюз1190100 0.1 102820
21:00−28св1197100 0.1 102819
2 марта, вт
вт200:00−29св1199100 0.0 102719
03:00−31св2210091 0.0 102519
06:00−33св229989 0.0 102525
09:00−34ссв2310091 0.0 102441
12:00−28св249492 0.0 1022302
15:00−24ссв359196 0.0 1020505
18:00−25св3793100 0.1 1021601
21:00−27ссв3897100 0.1 1023351
3 марта, ср
ср300:00−29ссв2798100 0.1 1023246
03:00−30с2598100 0.1 1024239
06:00−31с2598100 0.1 1026234
09:00−32с2497100 0.1 1027243
12:00−30ссв2391100 0.1 1027387
15:00−27ссв2287100 0.1 1027554
18:00−28ссв1294100 0.1 1028275
21:00−33с1199100 0.1 103019